Stündliche Wetter Kyzylzhar

Heute, 8 Mai, Samstag

Zeit Temperatur Niederschläge Wind Luftdruck Luftfeuchtigkeit
00:00 +16°C° 0 mm 2 m/S 667 mmHg 73%
01:00 +15°C° 0 mm 2 m/S 667 mmHg 74%
02:00 +15°C° 0 mm 2 m/S 667 mmHg 75%
03:00 +15°C° 0.1 mm 1 m/S 667 mmHg 74%
04:00 +15°C° 0.1 mm 1 m/S 667 mmHg 74%
05:00 +15°C° 0 mm 1 m/S 667 mmHg 75%
06:00 +16°C° 0.1 mm 2 m/S 667 mmHg 72%
07:00 +17°C° 0.1 mm 2 m/S 668 mmHg 69%
08:00 +18°C° 0.1 mm 2 m/S 668 mmHg 66%
09:00 +19°C° 0.2 mm 2 m/S 668 mmHg 64%
10:00 +19°C° 0.2 mm 3 m/S 668 mmHg 63%
11:00 +20°C° 0 mm 3 m/S 668 mmHg 62%
12:00 +20°C° 0.4 mm 3 m/S 668 mmHg 63%
13:00 +20°C° 0.4 mm 2 m/S 668 mmHg 63%
14:00 +19°C° 0.4 mm 2 m/S 668 mmHg 64%
15:00 +19°C° 0.2 mm 2 m/S 668 mmHg 64%
16:00 +20°C° 0.2 mm 1 m/S 668 mmHg 64%
17:00 +20°C° 0.2 mm 1 m/S 668 mmHg 64%
18:00 +19°C° 0 mm 1 m/S 668 mmHg 67%
19:00 +16°C° 0 mm 1 m/S 667 mmHg 70%
20:00 +15°C° 0 mm 1 m/S 667 mmHg 73%
21:00 +15°C° 0 mm 1 m/S 667 mmHg 73%
22:00 +14°C° 0 mm 1 m/S 667 mmHg 72%
23:00 +14°C° 0 mm 1 m/S 666 mmHg 72%

Morgen, 9 Mai, Sonntag

Zeit Temperatur Niederschläge Wind Luftdruck Luftfeuchtigkeit
00:00 +13°C° 0 mm 2 m/S 666 mmHg 70%
01:00 +13°C° 0 mm 2 m/S 666 mmHg 69%
02:00 +13°C° 0 mm 2 m/S 666 mmHg 68%
03:00 +13°C° 0 mm 2 m/S 666 mmHg 67%
04:00 +14°C° 0 mm 2 m/S 665 mmHg 65%
05:00 +14°C° 0 mm 2 m/S 665 mmHg 64%
06:00 +16°C° 0 mm 2 m/S 665 mmHg 60%
07:00 +17°C° 0 mm 2 m/S 666 mmHg 56%
08:00 +19°C° 0 mm 2 m/S 666 mmHg 52%
09:00 +20°C° 0 mm 2 m/S 666 mmHg 50%
10:00 +21°C° 0 mm 2 m/S 666 mmHg 48%
11:00 +22°C° 0 mm 3 m/S 666 mmHg 45%
12:00 +24°C° 0 mm 3 m/S 666 mmHg 45%
13:00 +24°C° 0 mm 3 m/S 665 mmHg 45%
14:00 +24°C° 0 mm 2 m/S 665 mmHg 44%
15:00 +24°C° 0 mm 2 m/S 665 mmHg 46%
16:00 +23°C° 0 mm 2 m/S 665 mmHg 48%
17:00 +23°C° 0 mm 2 m/S 665 mmHg 50%
18:00 +20°C° 0.1 mm 2 m/S 665 mmHg 54%
19:00 +19°C° 0.1 mm 2 m/S 665 mmHg 57%
20:00 +18°C° 0.1 mm 1 m/S 665 mmHg 61%
21:00 +17°C° 0 mm 2 m/S 665 mmHg 60%
22:00 +17°C° 0 mm 2 m/S 665 mmHg 58%
23:00 +16°C° 0 mm 2 m/S 664 mmHg 56%

übermorgen, 10 Mai, Montag

Zeit Temperatur Niederschläge Wind Luftdruck Luftfeuchtigkeit
00:00 +16°C° 0 mm 3 m/S 665 mmHg 58%
01:00 +16°C° 0 mm 3 m/S 665 mmHg 59%
02:00 +15°C° 0 mm 4 m/S 665 mmHg 61%
03:00 +14°C° 0.1 mm 3 m/S 665 mmHg 66%
04:00 +15°C° 0.1 mm 2 m/S 665 mmHg 71%
05:00 +15°C° 0.1 mm 1 m/S 664 mmHg 76%
06:00 +15°C° 0 mm 2 m/S 665 mmHg 74%
07:00 +16°C° 0 mm 2 m/S 665 mmHg 72%
08:00 +17°C° 0 mm 2 m/S 665 mmHg 70%
09:00 +17°C° 0.2 mm 2 m/S 665 mmHg 68%
10:00 +17°C° 0.2 mm 2 m/S 665 mmHg 67%
11:00 +17°C° 0.2 mm 2 m/S 665 mmHg 65%
12:00 +18°C° 0.1 mm 3 m/S 665 mmHg 61%
13:00 +19°C° 0.1 mm 3 m/S 665 mmHg 57%
14:00 +20°C° 0.1 mm 4 m/S 665 mmHg 53%
15:00 +20°C° 0 mm 4 m/S 664 mmHg 51%
16:00 +20°C° 0 mm 4 m/S 664 mmHg 49%
17:00 +20°C° 0 mm 4 m/S 664 mmHg 47%
18:00 +18°C° 0 mm 3 m/S 664 mmHg 52%
19:00 +17°C° 0 mm 3 m/S 664 mmHg 57%
20:00 +14°C° 0 mm 3 m/S 664 mmHg 62%
21:00 +15°C° 0 mm 2 m/S 664 mmHg 63%
22:00 +14°C° 0 mm 2 m/S 663 mmHg 64%
23:00 +13°C° 0 mm 2 m/S 663 mmHg 65%

11 Mai, Dienstag

Zeit Temperatur Niederschläge Wind Luftdruck Luftfeuchtigkeit
00:00 +13°C° 0 mm 2 m/S 663 mmHg 66%
01:00 +13°C° 0 mm 2 m/S 663 mmHg 67%
02:00 +13°C° 0 mm 2 m/S 663 mmHg 68%
03:00 +13°C° 0 mm 2 m/S 663 mmHg 68%
04:00 +13°C° 0 mm 2 m/S 663 mmHg 68%
05:00 +13°C° 0 mm 2 m/S 663 mmHg 68%
06:00 +14°C° 0 mm 2 m/S 664 mmHg 62%
07:00 +14°C° 0 mm 3 m/S 664 mmHg 56%
08:00 +17°C° 0 mm 3 m/S 664 mmHg 51%
09:00 +18°C° 0.1 mm 4 m/S 664 mmHg 48%
10:00 +17°C° 0.1 mm 5 m/S 664 mmHg 46%
11:00 +19°C° 0.1 mm 5 m/S 664 mmHg 43%
12:00 +19°C° 0.1 mm 6 m/S 664 mmHg 42%
13:00 +19°C° 0.1 mm 6 m/S 664 mmHg 41%
14:00 +19°C° 0.1 mm 6 m/S 664 mmHg 41%
15:00 +19°C° 0.1 mm 6 m/S 665 mmHg 42%
16:00 +17°C° 0.1 mm 5 m/S 665 mmHg 44%
17:00 +17°C° 0.1 mm 5 m/S 665 mmHg 46%
18:00 +15°C° 0.3 mm 4 m/S 665 mmHg 56%
19:00 +13°C° 0.3 mm 3 m/S 665 mmHg 67%
20:00 +12°C° 0.3 mm 1 m/S 665 mmHg 77%
21:00 +12°C° 0.8 mm 1 m/S 665 mmHg 80%
22:00 +11°C° 0.8 mm 1 m/S 665 mmHg 83%
23:00 +11°C° 0.8 mm 1 m/S 665 mmHg 87%

12 Mai, Mittwoch

Zeit Temperatur Niederschläge Wind Luftdruck Luftfeuchtigkeit
00:00 +9°C° 1.4 mm 2 m/S 665 mmHg 90%
01:00 +8°C° 1.4 mm 2 m/S 665 mmHg 94%
02:00 +8°C° 1.4 mm 3 m/S 665 mmHg 97%
03:00 +7°C° 1.4 mm 2 m/S 666 mmHg 95%
04:00 +7°C° 1.4 mm 2 m/S 666 mmHg 93%
05:00 +7°C° 1.4 mm 1 m/S 667 mmHg 91%
06:00 +8°C° 0.2 mm 1 m/S 667 mmHg 79%
07:00 +9°C° 0.2 mm 1 m/S 668 mmHg 67%
08:00 +10°C° 0.2 mm 1 m/S 668 mmHg 55%
09:00 +10°C° 0 mm 2 m/S 668 mmHg 53%
10:00 +12°C° 0 mm 2 m/S 668 mmHg 51%
11:00 +12°C° 0 mm 3 m/S 668 mmHg 49%
12:00 +13°C° 0 mm 3 m/S 668 mmHg 49%
13:00 +13°C° 0 mm 3 m/S 668 mmHg 48%
14:00 +14°C° 0 mm 3 m/S 668 mmHg 48%
15:00 +13°C° 0 mm 3 m/S 667 mmHg 49%
16:00 +13°C° 0 mm 3 m/S 667 mmHg 50%
17:00 +13°C° 0 mm 3 m/S 667 mmHg 52%
18:00 +13°C° 0 mm 2 m/S 667 mmHg 55%
19:00 +10°C° 0 mm 2 m/S 667 mmHg 58%
20:00 +9°C° 0 mm 2 m/S 666 mmHg 62%
21:00 +9°C° 0 mm 2 m/S 666 mmHg 62%
22:00 +8°C° 0 mm 2 m/S 666 mmHg 62%
23:00 +8°C° 0 mm 2 m/S 665 mmHg 62%

13 Mai, Donnerstag

Zeit Temperatur Niederschläge Wind Luftdruck Luftfeuchtigkeit
00:00 +7°C° 0 mm 2 m/S 665 mmHg 61%
01:00 +7°C° 0 mm 2 m/S 664 mmHg 59%
02:00 +7°C° 0 mm 2 m/S 664 mmHg 57%
03:00 +7°C° 0 mm 2 m/S 664 mmHg 57%
04:00 +7°C° 0 mm 2 m/S 664 mmHg 56%
05:00 +7°C° 0 mm 2 m/S 664 mmHg 56%
06:00 +9°C° 0 mm 2 m/S 664 mmHg 52%
07:00 +10°C° 0 mm 2 m/S 664 mmHg 47%
08:00 +12°C° 0 mm 3 m/S 664 mmHg 43%
09:00 +13°C° 0 mm 3 m/S 664 mmHg 43%
10:00 +13°C° 0 mm 3 m/S 664 mmHg 43%
11:00 +14°C° 0 mm 3 m/S 664 mmHg 43%
12:00 +14°C° 0 mm 3 m/S 664 mmHg 43%
13:00 +14°C° 0 mm 3 m/S 664 mmHg 44%
14:00 +16°C° 0 mm 3 m/S 664 mmHg 44%
15:00 +14°C° 0 mm 3 m/S 664 mmHg 44%
16:00 +14°C° 0 mm 3 m/S 664 mmHg 44%
17:00 +14°C° 0 mm 2 m/S 664 mmHg 45%
18:00 +13°C° 0 mm 2 m/S 664 mmHg 48%
19:00 +12°C° 0 mm 1 m/S 664 mmHg 51%
20:00 +10°C° 0 mm 1 m/S 664 mmHg 55%
21:00 +10°C° 0 mm 1 m/S 664 mmHg 55%
22:00 +10°C° 0 mm 1 m/S 664 mmHg 55%
23:00 +10°C° 0 mm 1 m/S 664 mmHg 56%
Mehr zeigen

Wir brauchen deine Erlaubnis

Meteoprog und unser Service Anbieter werden persönliche Daten aufbewahren, so wie Cookies, Geräte Bezeichnung oder ähnliche Technologien von deinem Gerät und Prozess, so wie Persönliche Daten Inhalte und Werbungen, genauso wie social Media und den Verkehr zu analysieren.

  • Aufbewahrung und/oder Zugang zu deiner Geräte Informationen.

    Cookies, Geräte Bezeichnung oder andere Informationen, können aufbewahrt oder Zugang zu deinem Gerät erhalten, für den Grund, der oben angegeben wird.

  • Personalisierte Werbung und Inhalte, Messungen, Einblick in das Publikum und Produkt Entwicklung.

    Werbungen und Inhalte können personalisiert werden, basierend auf ein Profil. Mehr Daten können besser personalisierte Werbungen und Inhalte hinzufügen. Werbung und Inhalte können gezeigt und gemessen werden. Einblicke über das Publikum, welche die Werbung gesehen haben und den Inhalt, können abgeleitet werden. So wie Daten können genutzt werden, um es zu verbessern oder die Benutzer Erfahrung zu verbessern das System und die Software.

Wenn du “Ich stimme zu” klickst, erlaubst du uns, die Cookies zu benutzen die Geräte Bezeichnung, den Web oder ähnliche Technologien zu benutzen. Deine Settings, können in deinem Gerät bei deinem Browser geändert werden.

Für den bestimmten Zweck, berechtigten Interessen beruhen darauf, mehr als auf den Inhalt. Du kannst mehr darüber in unseren Privaten und Cookie Politik lesen.